Location: A�t Bou Chrif
(32.7193°N, 5.2385°W)
Time: 03:19:53
(UTC+00:00)

Cosmos 389 Rocket - Pass Details

Date: 08 August 2020
Orbit: 443 x 475 km, 81.1° (Epoch: 20 September)

Event Time Altitude Azimuth Distance (km) Brightness Sun altitude
Rises 20:53:04 0° 353° (N) 2,448 6.8 -19.6°
Reaches altitude 10° 20:55:08 10° 354° (N) 1,577 5.7 -20.0°
Enters shadow 20:58:30 80° 57° (ENE) 461 2.3 -20.6°
